Regional Weather Roundup
Issued by NWS

Home | Current Version | Previous Version | Graphics & Text | Print | Product List | Glossary On
Versions: 1 2 3 4 5 6 7 8 9 10 11 12 13 14 15 16 17 18 19 20 21 22 23 24 25 26 27
000
ASUS45 KCYS 221310
RWRWY

WYOMING REGIONAL WEATHER ROUNDUP
NATIONAL WEATHER SERVICE CHEYENNE WY
700 AM MDT TUE MAY 22 2018

NOTE:  "FAIR" INDICATES FEW OR NO CLOUDS BELOW 12,000 FEET
WITH NO SIGNIFICANT WEATHER AND/OR OBSTRUCTIONS TO VISIBILITY.

WYZ001-221400-
YELLOWSTONE NATIONAL PARK

CITY           SKY/WX    TMP DP  RH WIND       PRES   REMARKS
LK YELLOWSTONE   N/A     32  30  92 CALM      30.16R
W YELLOWSTONE  NOT AVBL

$$
WYZ002>013-054>058-071-098>099-221400-
NORTHERN WYOMING

CITY           SKY/WX    TMP DP  RH WIND       PRES   REMARKS
JACKSON        FAIR      39  36  89 N3        30.09R
CODY           FAIR      51  45  79 CALM      30.05S
GREYBULL       FAIR      49  46  90 CALM      30.00R
WORLAND        FAIR      50  49  96 CALM      30.01R
SHERIDAN       FAIR      52  48  86 SE6       30.01R
BUFFALO        FAIR      53  45  74 S5        30.05R
GILLETTE       FAIR      58  52  80 CALM      30.01R
NEWCASTLE      FAIR      54  43  66 N3        30.02R

$$
WYZ014>020-022>026-101>103-221400-
CENTRAL WYOMING

CITY           SKY/WX    TMP DP  RH WIND       PRES   REMARKS
BIG PINEY      FAIR      43  39  86 NE6       30.06S
PINEDALE       FAIR      36  36 100 W13       30.09R WCI  27
DUBOIS         FAIR      37  32  81 NW8       30.11R WCI  31
LANDER         FAIR      50  41  71 SW6       30.02R
RIVERTON       FAIR      50  46  86 NW8       30.03R
CASPER         FAIR      50  48  93 N6        30.02S
DOUGLAS        FAIR      51  50  96 CALM      30.03R

$$
WYZ021-027>030-104>119-221400-
SOUTHERN WYOMING

CITY           SKY/WX    TMP DP  RH WIND       PRES   REMARKS
EVANSTON       MOCLDY    44  39  82 N5        30.03R
KEMMERER       FAIR      45  36  70 N8        30.04F
FORT BRIDGER   FAIR      48  39  71 E3        30.06S
ROCK SPRINGS   FAIR      50  39  66 E10       30.02S
DIXON          FAIR      48  33  56 S3        30.03R
RAWLINS        PTSUNNY   51  43  74 NE8       30.04R
SARATOGA       FAIR      43  36  75 CALM      30.05R
LARAMIE        FAIR      43  41  93 W7        30.08S
CHEYENNE       FAIR      50  47  89 NW5       30.03S
TORRINGTON     FAIR      53  52  96 N3        29.97S
PINE BLUFFS    PTSUNNY   48  48 100 N5        30.00R FOG

$$




USA.gov is the U.S. government's official web portal to all federal, state and local government web resources and services.